Weather History for Olbia, Italy

Change the Weather History Date:

Sunday, April 14, 2013

  Actual Average Record
Temperature  
Mean Temperature 56 °F -  
Max Temperature 68 °F 68 °F 73 °F (2006)
Min Temperature 44 °F 49 °F 39 °F (2003)
Degree Days  
Heating Degree Days 9    
Growing Degree Days 6 (Base 50)    
Moisture  
Dew Point 49 °F    
Average Humidity 75    
Maximum Humidity 93    
Minimum Humidity 49    
Precipitation  
Precipitation 0.00 in 0.06 in - ()
Sea Level Pressure  
Sea Level Pressure 30.31 in    
Wind  
Wind Speed 5 mph ()    
Max Wind Speed 14 mph    
Max Gust Speed -    
Averages and records for this station are not official NWS values.
T = Trace of Precipitation, MM = Missing Value Source: Averaged Metar Reports

Daily Weather History Graph

Daily Weather History Graph

Search for Another Location

Airport:

Trip Planner

Search our weather history database for the weather conditions in past years. The results will help you decide how hot, cold, wet, or windy it might be!

Date:

Astronomy

Apr. 14, 2013 Rise Set
Actual Time 6:44 AM CEST 8:00 PM CEST
Civil Twilight 6:16 AM CEST 8:28 PM CEST
Nautical Twilight 5:42 AM CEST 9:03 PM CEST
Astronomical Twilight 5:06 AM CEST 9:39 PM CEST
Moon 9:07 AM CEST (4/14) No Moon Set
Length of Visible Light 14h 12m
Length of Day
13h 16m
Waxing Crescent, 15% of the Moon is Illuminated
Apr 14
Waxing Crescent
Apr 18
First Quarter
Apr 25
Full
May 2
Last Quarter
May 10
New

Hourly Weather History & Observations

Time (CEST) Temp. Windchill Dew Point Humidity Pressure Visibility Wind Dir Wind Speed Gust Speed Precip Events Conditions
12:20 AM 53.6 °F - 46.4 °F 77% 30.30 in - SSW 6.9 mph - N/A   Clear
12:50 AM 53.6 °F - 46.4 °F 77% 30.30 in - South 4.6 mph - N/A   Clear
1:20 AM 53.6 °F - 44.6 °F 72% 30.30 in - SSW 4.6 mph - N/A   Clear
1:50 AM 51.8 °F - 44.6 °F 76% 30.30 in - West 3.5 mph - N/A   Clear
2:20 AM 51.8 °F - 46.4 °F 82% 30.30 in - SSW 5.8 mph - N/A   Clear
2:50 AM 48.2 °F - 42.8 °F 82% 30.30 in - SW 5.8 mph - N/A   Clear
3:20 AM 48.2 °F - 44.6 °F 87% 30.30 in - SW 2.3 mph - N/A   Clear
3:50 AM 50.0 °F - 44.6 °F 82% 30.30 in - SSW 4.6 mph - N/A   Clear
4:20 AM 46.4 °F - 42.8 °F 87% 30.30 in - Variable 1.2 mph - N/A   Clear
4:50 AM 44.6 °F - 42.8 °F 93% 30.30 in - Variable 2.3 mph - N/A   Clear
5:20 AM 46.4 °F 44.3 °F 42.8 °F 87% 30.30 in - SW 4.6 mph - N/A   Clear
5:50 AM 46.4 °F 44.3 °F 44.6 °F 93% 30.30 in - SSW 4.6 mph - N/A   Clear
6:20 AM 44.6 °F - 41.0 °F 87% 30.30 in - Variable 2.3 mph - N/A   Clear
6:50 AM 46.4 °F 44.3 °F 42.8 °F 87% 30.33 in - SSW 4.6 mph - N/A   Clear
7:20 AM 44.6 °F 43.1 °F 41.0 °F 87% 30.33 in - SSW 3.5 mph - N/A   Clear
7:50 AM 48.2 °F - 44.6 °F 87% 30.33 in - Variable 2.3 mph - N/A   Clear
8:20 AM 51.8 °F - 46.4 °F 82% 30.33 in - Variable 2.3 mph - N/A   Clear
8:50 AM 57.2 °F - 48.2 °F 72% 30.33 in - Variable 2.3 mph - N/A   Clear
9:20 AM 59.0 °F - 50.0 °F 72% 30.33 in - Variable 1.2 mph - N/A   Clear
9:50 AM 62.6 °F - 50.0 °F 63% 30.33 in - Variable 3.5 mph - N/A   Clear
10:20 AM 62.6 °F - 53.6 °F 72% 30.36 in - NNE 5.8 mph - N/A   Clear
10:50 AM 62.6 °F - 53.6 °F 72% 30.36 in - NE 8.1 mph - N/A   Clear
11:20 AM 64.4 °F - 53.6 °F 68% 30.36 in - NE 6.9 mph - N/A   Clear
11:50 AM 64.4 °F - 53.6 °F 68% 30.36 in - NE 8.1 mph - N/A   Clear
12:20 PM 64.4 °F - 53.6 °F 68% 30.36 in - NE 9.2 mph - N/A   Clear
12:50 PM 66.2 °F - 55.4 °F 68% 30.36 in - NE 9.2 mph - N/A   Clear
1:20 PM 66.2 °F - 53.6 °F 64% 30.33 in - NE 11.5 mph - N/A   Clear
1:50 PM 66.2 °F - 53.6 °F 64% 30.33 in - NE 12.7 mph - N/A   Clear
2:20 PM 66.2 °F - 53.6 °F 64% 30.33 in - NE 11.5 mph - N/A   Clear
2:50 PM 66.2 °F - 53.6 °F 64% 30.33 in - NE 12.7 mph - N/A   Clear
3:20 PM 66.2 °F - 53.6 °F 64% 30.33 in - NNE 13.8 mph - N/A   Clear
3:50 PM 66.2 °F - 53.6 °F 64% 30.30 in - NE 12.7 mph - N/A   Clear
4:20 PM 64.4 °F - 53.6 °F 68% 30.30 in - NNE 13.8 mph - N/A   Clear
4:50 PM 66.2 °F - 53.6 °F 64% 30.30 in - NE 10.4 mph - N/A   Clear
5:20 PM 66.2 °F - 51.8 °F 60% 30.30 in - NNE 11.5 mph - N/A   Clear
5:50 PM 68.0 °F - 48.2 °F 49% 30.30 in - ENE 6.9 mph - N/A   Clear
6:20 PM 66.2 °F - 50.0 °F 56% 30.30 in - NE 6.9 mph - N/A   Clear
6:50 PM 64.4 °F - 48.2 °F 56% 30.30 in - NE 8.1 mph - N/A   Clear
7:20 PM 62.6 °F - 50.0 °F 63% 30.27 in - NE 8.1 mph - N/A   Clear
7:50 PM 59.0 °F - 50.0 °F 72% 30.27 in - NE 3.5 mph - N/A   Clear
8:20 PM 57.2 °F - 50.0 °F 77% 30.27 in - NE 4.6 mph - N/A   Clear
8:50 PM 55.4 °F - 50.0 °F 82% 30.27 in - East 3.5 mph - N/A   Clear
9:20 PM 53.6 °F - 48.2 °F 82% 30.30 in - Variable 1.2 mph - N/A   Clear
9:50 PM 51.8 °F - 48.2 °F 88% 30.30 in - Variable 2.3 mph - N/A   Clear
10:20 PM 51.8 °F - 48.2 °F 88% 30.30 in - SSW 4.6 mph - N/A   Clear
10:50 PM 51.8 °F - 46.4 °F 82% 30.30 in - SW 4.6 mph - N/A   Clear
11:20 PM 50.0 °F - 46.4 °F 87% 30.30 in - SW 4.6 mph - N/A   Clear
11:50 PM 48.2 °F - 44.6 °F 87% 30.30 in - SW 3.5 mph - N/A   Clear